Content
SEND FEEDBACK

Daily
Averages
Monthly
Summary
United States of America

FRANKLIN, WEST VIRGINIA


Home > North America > United States > West Virginia
Elevation: 1947 feet     Latitude: 38 40N     Longitude: 079 19W

WEATHER
 
SELECT A DAY
Number of Records: 40,605;   Date Range: 9/1/12 - 7/29/14
 
SHARE

PRINT THIS DATA

[ ← Previous Day ]
WEATHER ALMANAC - APRIL 19, 2014
[ Next Day → ]
[ °C ]   °F
Weather ElementAverageHighLow
Temperature56 °F70.7 °F (4:55 pm)40.3 °F (6:55 am)
Dewpoint42.6 °F46.4 °F (9:35 am)37.6 °F (7:35 pm)
Humidity65.5 %94 % (7:15 am)33 % (5:15 pm)
Barometer30.27 in30.34 in (10:15 am)30.23 in (4:35 am)
Wind Speed1.8 mph6.9 mph (2:35 pm)
Weather ElementAverage
Visibility10 mi
Wind DirectionENE (58.8 °)

Weather ElementTotal
Precipitation---
Heating Degree Days9.5 (Base 65)
Growing Degree Days5.5 (Base 50)
Averaged from 69 records on April 19, 2014
WEATHER CONDITIONS BREAKOUT
WIND DIRECTION BREAKOUT
WEATHER BY HOUR - APRIL 19, 2014
[ °C ]   °F
Local TimeTemperatureDewpointHumidityBarometerVisibilityWind DirectionWind SpeedGust SpeedPrecipitationEventsConditions
12:35 AM49.1 °F44.1 °F83 %30.26 in10.0 miCalmClear
12:55 AM49.6 °F45.1 °F84 %30.26 in10.0 miCalmClear
1:15 AM49.3 °F44.1 °F82 %30.25 in10.0 miCalmClear
1:35 AM49.8 °F44.4 °F82 %30.25 in10.0 miCalmClear
1:55 AM47.7 °F43.7 °F86 %30.25 in10.0 miCalmClear
2:15 AM47.8 °F43.3 °F84 %30.24 in10.0 miCalmClear
2:35 AM47.1 °F43.0 °F86 %30.25 in10.0 miCalmClear
2:55 AM47.3 °F42.6 °F84 %30.25 in10.0 miCalmClear
3:15 AM46.4 °F43.0 °F88 %30.24 in10.0 miCalmClear
3:35 AM46.0 °F43.2 °F90 %30.24 in10.0 miCalmClear
3:50 AM44.8 °F41.9 °F90 %30.24 in10.0 miCalmClear
4:15 AM45.0 °F42.1 °F90 %30.24 in10.0 miCalmClear
4:35 AM44.8 °F42.3 °F91 %30.23 in10.0 miCalmClear
4:55 AM45.1 °F42.8 °F91 %30.24 in10.0 miCalmClear
5:15 AM44.4 °F41.9 °F91 %30.25 in10.0 miCalmClear
5:35 AM44.2 °F41.7 °F91 %30.25 in10.0 miCalmClear
5:55 AM43.0 °F40.8 °F92 %30.26 in10.0 miCalmClear
6:15 AM41.4 °F39.0 °F91 %30.27 in10.0 miCalmClear
6:35 AM41.4 °F39.4 °F93 %30.29 in10.0 miCalmClear
6:55 AM40.3 °F38.5 °F93 %30.29 in7.0 miCalmClear
7:15 AM41.0 °F39.4 °F94 %30.31 in10.0 miCalmClear
7:35 AM43.0 °F41.4 °F94 %30.32 in10.0 miCalmClear
7:55 AM44.6 °F42.6 °F93 %30.32 in10.0 miCalmClear
8:15 AM45.7 °F43.3 °F92 %30.32 in10.0 miCalmClear
8:35 AM47.3 °F44.2 °F89 %30.32 in10.0 miCalmClear
8:55 AM48.9 °F45.1 °F87 %30.33 in10.0 miCalmClear
9:15 AM51.8 °F45.3 °F79 %30.33 in10.0 miCalmClear
9:35 AM53.1 °F46.4 °F78 %30.33 in10.0 miCalmClear
9:55 AM55.6 °F46.4 °F71 %30.33 in10.0 miCalmClear
10:15 AM57.2 °F46.4 °F67 %30.34 in10.0 miCalmClear
10:35 AM59.4 °F46.2 °F62 %30.33 in10.0 miESE (120°)3.5 mphClear
10:55 AM60.8 °F45.1 °F56 %30.32 in10.0 miCalmClear
11:15 AM61.3 °F44.2 °F53 %30.31 in10.0 miCalmClear
11:35 AM62.6 °F44.1 °F51 %30.31 in10.0 miSSE (160°)3.5 mphClear
11:55 AM63.9 °F42.6 °F46 %30.30 in10.0 miCalmClear
12:15 PM65.1 °F41.9 °F43 %30.29 in10.0 miNE (50°)3.5 mphClear
12:35 PM64.6 °F40.6 °F42 %30.29 in10.0 miCalmClear
1:15 PM67.8 °F44.1 °F42 %30.28 in10.0 miNNE (30°)3.5 mphClear
1:35 PM67.5 °F43.2 °F41 %30.26 in10.0 miCalmClear
1:55 PM68.5 °F43.5 °F40 %30.26 in10.0 miEast (100°)5.8 mphClear
2:15 PM68.5 °F44.4 °F42 %30.26 in10.0 miSE (130°)3.5 mphClear
2:35 PM69.4 °F43.9 °F40 %30.25 in10.0 miEast (100°)6.9 mphClear
2:55 PM69.3 °F44.2 °F40 %30.25 in10.0 miENE (60°)5.8 mphClear
3:15 PM68.9 °F43.2 °F39 %30.25 in10.0 miCalmClear
3:35 PM69.8 °F43.3 °F38 %30.25 in10.0 miEast (90°)3.5 mphClear
3:55 PM70.0 °F43.0 °F38 %30.24 in10.0 miEast (100°)5.8 mphClear
4:15 PM69.8 °F44.6 °F40 %30.23 in10.0 miEast (100°)5.8 mphClear
4:35 PM69.8 °F42.6 °F37 %30.23 in10.0 miEast (100°)3.5 mphClear
4:55 PM70.7 °F41.9 °F35 %30.23 in10.0 miCalmClear
5:15 PM70.7 °F40.5 °F33 %30.24 in10.0 miCalmClear
5:35 PM70.3 °F39.6 °F33 %30.24 in10.0 miENE (60°)3.5 mphClear
6:15 PM69.1 °F39.6 °F34 %30.24 in10.0 miEast (90°)5.8 mphClear
6:35 PM69.3 °F39.4 °F34 %30.24 in10.0 miENE (60°)5.8 mphClear
6:55 PM68.9 °F38.8 °F33 %30.24 in10.0 miEast (80°)5.8 mphClear
7:15 PM68.2 °F38.3 °F33 %30.24 in10.0 miENE (60°)3.5 mphClear
7:35 PM68.2 °F37.6 °F33 %30.24 in10.0 miCalmClear
7:55 PM66.9 °F37.6 °F34 %30.25 in10.0 miCalmClear
8:15 PM59.0 °F44.8 °F59 %30.25 in10.0 miWest (260°)3.5 mphClear
8:35 PM57.6 °F44.4 °F62 %30.25 in10.0 miWNW (300°)5.8 mphClear
8:55 PM54.7 °F44.8 °F69 %30.26 in10.0 miWNW (290°)6.9 mphClear
9:15 PM54.9 °F43.9 °F66 %30.27 in10.0 miWNW (290°)5.8 mphClear
9:35 PM54.1 °F43.7 °F68 %30.28 in10.0 miWest (280°)4.6 mphClear
9:55 PM52.7 °F43.0 °F70 %30.29 in10.0 miWNW (300°)4.6 mphClear
10:15 PM54.3 °F42.4 °F64 %30.29 in10.0 miWest (280°)4.6 mphClear
10:35 PM54.3 °F41.7 °F62 %30.30 in10.0 miWNW (290°)5.8 mphClear
10:55 PM50.2 °F42.1 °F74 %30.31 in10.0 miWest (280°)4.6 mphClear
11:15 PM50.0 °F41.7 °F73 %30.31 in10.0 miCalmClear
11:35 PM48.7 °F41.4 °F76 %30.32 in10.0 miCalmClear
11:55 PM48.4 °F42.3 °F79 %30.32 in10.0 miCalmClear
Hourly data recorded from KW99, located miles away from Franklin, West Virginia







STORIES FROM OUR PARTNERS